Regional Weather Roundup
Issued by NWS

Home | Current Version | Previous Version | Text Only | Print | Product List | Glossary On
Versions: 1 2 3 4 5 6 7 8 9 10 11 12 13 14 15 16 17 18 19 20 21 22 23 24 25 26 27 28 29 30 31 32 33 34 35 36 37 38 39 40 41 42 43 44 45 46 47 48 49 50
502
ASUS43 KFSD 180202
RWRSD

WEATHER ROUNDUP FOR SOUTH DAKOTA
NATIONAL WEATHER SERVICE SIOUX FALLS SD
800 PM CST SAT FEB 17 2018

NOTE: "FAIR" INDICATES FEW OR NO CLOUDS BELOW 12,000 FEET WITH NO
SIGNIFICANT WEATHER AND/OR OBSTRUCTIONS TO VISIBILITY.


SDZ001>005-009-010-012>017-180300-
NORTHWEST AND NORTH CENTRAL SOUTH DAKOTA

CITY           SKY/WX    TMP DP  RH WIND       PRES   REMARKS
BUFFALO          N/A     15  11  83 SE13      29.72F WCI   1
FAITH            N/A     15  12  88 SE10      29.85F WCI   2
MOBRIDGE       CLOUDY    18  11  74 MISG      29.92F
$$

SDZ012>016-024>037-041>051-057-063-072>074-180300-
SOUTHWEST AND SOUTH CENTRAL SOUTH DAKOTA

CITY           SKY/WX    TMP DP  RH WIND       PRES   REMARKS
RAPID CTY ARPT CLOUDY    24  19  81 SE7       29.80F WCI  16
PIERRE         PTCLDY    14  11  87 E7        29.95F WCI   4
CUSTER         CLOUDY    22  18  85 CALM      29.71F
ELLSWORTH AFB  CLOUDY    24  20  88 SE6       29.78F WCI  16
PHILIP         MOCLDY    23  19  85 E10       29.89F WCI  12
PINE RIDGE     MOCLDY    37  21  52 SE21G29   29.77F
SPEARFISH        N/A     21  19  93 NW5       29.69F WCI  15
WINNER         FAIR      28  22  78 SE9       29.96F WCI  19
$$

SDZ004>011-016>023-039-040-180300-
NORTHEAST SOUTH DAKOTA

CITY           SKY/WX    TMP DP  RH WIND       PRES   REMARKS
ABERDEEN       PTCLDY    12   7  80 W3        30.01F
WATERTOWN      CLEAR     20  14  77 W6        29.99F WCI  12
BROOKINGS      CLEAR     20  15  81 W6        30.03S WCI  12
SISSETON         N/A     12   3  67 S8        30.02R WCI   0
$$

SDZ017-020-022-023-036>040-048>070-180300-
SOUTHEAST SOUTH DAKOTA

CITY           SKY/WX    TMP DP  RH WIND       PRES   REMARKS
SIOUX FALLS    CLEAR     23  18  81 SW5       30.06F WCI  17
HURON          PTCLDY    21  17  84 S6        30.04S WCI  13
CHAMBERLAIN    CLEAR     24  23  93 NE5       30.00F WCI  19
MITCHELL       CLEAR     24  19  81 S7        30.06F WCI  16
YANKTON        CLEAR     27  23  85 SE7       30.09F WCI  19
$$

ABBREVIATIONS USED IN REMARKS
   TC - TEMPERATURE IN CELSIUS
  WCI - WIND CHILL INDEX
   HX - HEAT INDEX
  VSB - VISIBILITY





USA.gov is the U.S. government's official web portal to all federal, state and local government web resources and services.